This is the latest recevied weather packets stored in our database for station/object OK1PMP-6. If no packets are shown the sender has not sent any weather packets the latest 10 day(s).
| Time | Temp. | Humidity | Pressure | Rain* | Wind** | Luminosity | Snow |
|---|---|---|---|---|---|---|---|
| 1778069034 | 21.67° C | 53% | 1010.2 hPa | 0 mm | - | 633 W/m² | - |
| 1778068128 | 20.56° C | 54% | 1010.2 hPa | 0 mm | - | 195 W/m² | - |
| 1778067229 | 22.22° C | 52% | 1010.2 hPa | 0 mm | - | 585 W/m² | - |
| 1778066329 | 21.11° C | 53% | 1010 hPa | 0 mm | - | 765 W/m² | - |
| 1778065428 | 21.11° C | 54% | 1010.5 hPa | 0 mm | - | 606 W/m² | - |
| 1778064528 | 21.11° C | 56% | 1010.4 hPa | 0 mm | - | 851 W/m² | - |
| 1778063629 | 20° C | 59% | 1010.3 hPa | 0 mm | - | 433 W/m² | - |
| 1778062733 | 19.44° C | 61% | 1010.5 hPa | 0 mm | - | 213 W/m² | - |
| 1778061828 | 20° C | 61% | 1010.5 hPa | 0 mm | - | 319 W/m² | - |
| 1778060928 | 18.89° C | 63% | 1010.3 hPa | 0 mm | - | 322 W/m² | - |
| 1778060028 | 20° C | 62% | 1010.5 hPa | 0 mm | - | 474 W/m² | - |
| 1778059128 | 17.78° C | 66% | 1010.7 hPa | 0 mm | - | 283 W/m² | - |
| 1778058229 | 18.33° C | 66% | 1010.4 hPa | 0 mm | - | 215 W/m² | - |
| 1778057329 | 17.78° C | 67% | 1010.4 hPa | 0 mm | - | 269 W/m² | - |
| 1778056433 | 17.78° C | 70% | 1010.3 hPa | 0 mm | - | 216 W/m² | - |
| 1778055529 | 17.78° C | 71% | 1010.4 hPa | 0 mm | - | 697 W/m² | - |
| 1778054652 | 17.22° C | 72% | 1010.4 hPa | 0 mm | - | 536 W/m² | - |
| 1778053728 | 16.67° C | 74% | 1010.2 hPa | 0 mm | - | 450 W/m² | - |
| 1778052828 | 16.11° C | 77% | 1010.2 hPa | 0 mm | - | 398 W/m² | - |
| 1778051928 | 16.11° C | 75% | 1010.3 hPa | 0 mm | - | 199 W/m² | - |
| 1778051029 | 16.11° C | 79% | 1010.1 hPa | 0 mm | - | 533 W/m² | - |
| 1778050132 | 15° C | 84% | 1010.2 hPa | 0 mm | - | 447 W/m² | - |
| 1778049228 | 13.89° C | 86% | 1010.2 hPa | 0 mm | - | 261 W/m² | - |
| 1778048331 | 13.33° C | 87% | 1010 hPa | 0 mm | - | 154 W/m² | - |
| 1778047432 | 13.33° C | 88% | 1010.3 hPa | 0 mm | - | 100 W/m² | - |
* Rain latest hour (hover to see other rain measurements)
** Current wind speed in m/s (hover to see current wind gust speed)